Location: Unspecified
(49.9820°N, 20.4363°E)
Time: 22:17:39
(UTC+02:00)

ISS - Pass Details

Date: 15 July 2018
Orbit: 402 x 408 km, 51.6° (Epoch: 20 July)

Event Time Altitude Azimuth Distance (km) Brightness Sun altitude
Rises 03:22:35 0° 278° (W) 2,332 -0.3 -10.3°
Reaches altitude 10° 03:24:41 10° 282° (WNW) 1,472 -1.2 -10.1°
Maximum altitude 03:27:58 64° 4° (N) 456 -3.4 -9.8°
Drops below altitude 10° 03:31:15 10° 87° (E) 1,473 -0.4 -9.5°
Sets 03:33:21 0° 91° (E) 2,334 0.6 -9.3°
